Location: Newark
(40.9833°N, 0.0333°W)
Time: 18:00:01
(UTC+00:00)

Transit 4A - Pass Details

Date: 02 November 2020
Orbit: 862 x 982 km, 66.8° (Epoch: 28 November)

Event Time Altitude Azimuth Distance (km) Brightness Sun altitude
Rises 21:30:26 0° 336° (NNW) 3,694 11.5 -51.3°
Enters shadow 21:31:57 - 342° (NNW) 3,201 11.1 -51.5°
Reaches altitude 10° 21:33:27 10° 349° (NNW) 2,740 - -51.7°
Maximum altitude 21:38:51 28° 46° (NE) 1,757 - -52.6°
Drops below altitude 10° 21:44:08 10° 103° (ESE) 2,690 - -53.4°
Sets 21:47:04 0° 115° (ESE) 3,616 - -53.8°
